Time,TemperatureF,DewpointF,PressureIn,WindDirection,WindDirectionDegrees,WindSpeedMPH,WindSpeedGustMPH,Humidity,HourlyPrecipIn,Conditions,Clouds,dailyrainin,SoftwareType,DateUTC
2013-01-10 00:15:00,69.7,69.0,30.29,East,86,2.0,4.0,96,0.00,,,0.00,weatherlink.com 1.10,2013-01-10 05:15:00,
2013-01-10 01:00:00,69.5,68.0,30.28,NE,42,2.0,7.0,96,0.00,,,0.00,weatherlink.com 1.10,2013-01-10 06:00:00,
2013-01-10 01:15:00,69.4,68.0,30.28,NE,47,0.0,4.0,96,0.00,,,0.00,weatherlink.com 1.10,2013-01-10 06:15:00,
2013-01-10 01:30:00,69.2,68.0,30.28,NE,54,0.0,3.0,97,0.00,,,0.00,weatherlink.com 1.10,2013-01-10 06:30:00,
2013-01-10 01:45:00,69.2,68.0,30.28,NE,47,0.0,3.0,97,0.00,,,0.00,weatherlink.com 1.10,2013-01-10 06:45:00,
2013-01-10 02:00:00,69.1,68.0,30.28,ENE,68,0.0,4.0,97,0.00,,,0.00,weatherlink.com 1.10,2013-01-10 07:00:00,
2013-01-10 02:15:00,69.0,68.0,30.28,East,86,2.0,3.0,97,0.00,,,0.00,weatherlink.com 1.10,2013-01-10 07:15:00,
2013-01-10 02:30:00,69.0,68.0,30.28,NE,50,2.0,3.0,97,0.00,,,0.00,weatherlink.com 1.10,2013-01-10 07:30:00,
2013-01-10 02:45:00,69.0,68.0,30.28,NE,53,2.0,4.0,97,0.00,,,0.00,weatherlink.com 1.10,2013-01-10 07:45:00,
2013-01-10 03:00:00,68.9,68.0,30.28,ENE,59,2.0,3.0,97,0.00,,,0.00,weatherlink.com 1.10,2013-01-10 08:00:00,
2013-01-10 03:16:00,68.8,68.0,30.28,NE,55,0.0,4.0,97,0.00,,,0.00,weatherlink.com 1.10,2013-01-10 08:16:00,
2013-01-10 03:31:00,68.8,68.0,30.27,ENE,71,2.0,4.0,97,0.00,,,0.00,weatherlink.com 1.10,2013-01-10 08:31:00,
2013-01-10 03:46:00,68.8,68.0,30.27,NE,48,0.0,3.0,97,0.00,,,0.00,weatherlink.com 1.10,2013-01-10 08:46:00,
2013-01-10 04:01:00,68.7,68.0,30.27,East,82,1.0,5.0,97,0.00,,,0.00,weatherlink.com 1.10,2013-01-10 09:01:00,
2013-01-10 04:16:00,68.5,68.0,30.26,NE,53,0.0,3.0,97,0.00,,,0.00,weatherlink.com 1.10,2013-01-10 09:16:00,
2013-01-10 04:31:00,68.4,68.0,30.26,NE,54,1.0,5.0,97,0.00,,,0.00,weatherlink.com 1.10,2013-01-10 09:31:00,
2013-01-10 04:46:00,68.4,68.0,30.26,ENE,62,0.0,3.0,97,0.00,,,0.00,weatherlink.com 1.10,2013-01-10 09:46:00,
2013-01-10 05:01:00,68.4,68.0,30.26,ENE,65,2.0,4.0,97,0.00,,,0.00,weatherlink.com 1.10,2013-01-10 10:01:00,
2013-01-10 05:16:00,68.4,68.0,30.26,ENE,61,0.0,3.0,98,0.00,,,0.00,weatherlink.com 1.10,2013-01-10 10:16:00,
2013-01-10 05:31:00,68.3,68.0,30.26,ENE,59,0.0,3.0,98,0.00,,,0.00,weatherlink.com 1.10,2013-01-10 10:31:00,
2013-01-10 05:46:00,68.1,68.0,30.25,NE,46,0.0,3.0,98,0.00,,,0.00,weatherlink.com 1.10,2013-01-10 10:46:00,
2013-01-10 06:01:00,68.1,68.0,30.25,NE,55,3.0,3.0,98,0.00,,,0.00,weatherlink.com 1.10,2013-01-10 11:01:00,
2013-01-10 06:16:00,68.2,68.0,30.26,NE,44,3.0,4.0,98,0.00,,,0.00,weatherlink.com 1.10,2013-01-10 11:16:00,
2013-01-10 06:31:00,68.1,68.0,30.27,ENE,57,0.0,4.0,98,0.00,,,0.00,weatherlink.com 1.10,2013-01-10 11:31:00,
2013-01-10 06:46:00,67.7,67.0,30.27,ENE,63,2.0,2.0,98,0.00,,,0.00,weatherlink.com 1.10,2013-01-10 11:46:00,
2013-01-10 07:01:00,67.6,67.0,30.27,NE,55,2.0,3.0,98,0.00,,,0.00,weatherlink.com 1.10,2013-01-10 12:01:00,
2013-01-10 07:16:00,67.4,67.0,30.27,NE,49,0.0,3.0,98,0.00,,,0.00,weatherlink.com 1.10,2013-01-10 12:16:00,
2013-01-10 07:31:00,67.4,67.0,30.28,NE,55,2.0,4.0,98,0.00,,,0.00,weatherlink.com 1.10,2013-01-10 12:31:00,
2013-01-10 07:46:00,67.2,67.0,30.29,ENE,74,2.0,3.0,98,0.00,,,0.00,weatherlink.com 1.10,2013-01-10 12:46:00,
2013-01-10 08:01:00,67.4,67.0,30.29,ENE,57,0.0,2.0,98,0.00,,,0.00,weatherlink.com 1.10,2013-01-10 13:01:00,
2013-01-10 08:16:00,67.6,67.0,30.29,ENE,61,2.0,4.0,98,0.00,,,0.00,weatherlink.com 1.10,2013-01-10 13:16:00,
2013-01-10 08:31:00,68.0,68.0,30.29,NE,55,2.0,4.0,98,0.00,,,0.00,weatherlink.com 1.10,2013-01-10 13:31:00,
2013-01-10 08:46:00,68.4,68.0,30.30,NE,42,1.0,5.0,98,0.00,,,0.00,weatherlink.com 1.10,2013-01-10 13:46:00,
2013-01-10 09:01:00,69.0,69.0,30.29,East,95,0.0,5.0,98,0.00,,,0.00,weatherlink.com 1.10,2013-01-10 14:01:00,
2013-01-10 09:16:00,69.9,69.0,30.29,NE,50,1.0,7.0,98,0.00,,,0.00,weatherlink.com 1.10,2013-01-10 14:16:00,
2013-01-10 09:31:00,71.0,70.0,30.29,NNE,32,4.0,5.0,96,0.00,,,0.00,weatherlink.com 1.10,2013-01-10 14:31:00,
2013-01-10 09:46:00,72.0,70.0,30.29,NE,45,2.0,9.0,93,0.01,,,0.01,weatherlink.com 1.10,2013-01-10 14:46:00,
2013-01-10 10:01:00,73.4,70.0,30.28,NE,42,0.0,5.0,90,0.01,,,0.01,weatherlink.com 1.10,2013-01-10 15:01:00,
2013-01-10 10:16:00,74.1,70.0,30.28,NE,51,4.0,6.0,86,0.01,,,0.01,weatherlink.com 1.10,2013-01-10 15:16:00,
2013-01-10 10:31:00,75.1,70.0,30.27,NNE,32,0.0,7.0,84,0.01,,,0.01,weatherlink.com 1.10,2013-01-10 15:31:00,
2013-01-10 10:46:00,76.8,69.0,30.26,NE,42,3.0,6.0,77,0.00,,,0.01,weatherlink.com 1.10,2013-01-10 15:46:00,
2013-01-10 11:01:00,77.0,69.0,30.25,SE,125,0.0,9.0,75,0.00,,,0.01,weatherlink.com 1.10,2013-01-10 16:01:00,
2013-01-10 11:16:00,78.7,68.0,30.24,NE,44,2.0,7.0,70,0.00,,,0.01,weatherlink.com 1.10,2013-01-10 16:16:00,
2013-01-10 11:31:00,78.7,66.0,30.23,North,9,5.0,14.0,65,0.00,,,0.01,weatherlink.com 1.10,2013-01-10 16:31:00,
2013-01-10 11:47:00,80.1,66.0,30.22,NE,34,1.0,8.0,63,0.00,,,0.01,weatherlink.com 1.10,2013-01-10 16:47:00,
2013-01-10 12:02:00,80.4,67.0,30.22,NE,37,1.0,6.0,63,0.00,,,0.01,weatherlink.com 1.10,2013-01-10 17:02:00,
2013-01-10 12:17:00,81.0,67.0,30.21,ENE,65,4.0,12.0,62,0.00,,,0.01,weatherlink.com 1.10,2013-01-10 17:17:00,
2013-01-10 12:32:00,81.2,67.0,30.21,ENE,65,0.0,6.0,63,0.00,,,0.01,weatherlink.com 1.10,2013-01-10 17:32:00,
2013-01-10 12:47:00,79.0,67.0,30.20,NE,37,4.0,8.0,66,0.00,,,0.01,weatherlink.com 1.10,2013-01-10 17:47:00,
2013-01-10 13:02:00,81.5,68.0,30.20,NE,46,2.0,7.0,64,0.00,,,0.01,weatherlink.com 1.10,2013-01-10 18:02:00,
2013-01-10 13:17:00,80.3,67.0,30.20,East,101,0.0,5.0,63,0.00,,,0.01,weatherlink.com 1.10,2013-01-10 18:17:00,
2013-01-10 13:32:00,81.6,68.0,30.20,NE,53,4.0,6.0,64,0.00,,,0.01,weatherlink.com 1.10,2013-01-10 18:32:00,
2013-01-10 13:47:00,83.8,68.0,30.20,ENE,64,1.0,5.0,60,0.00,,,0.01,weatherlink.com 1.10,2013-01-10 18:47:00,
2013-01-10 14:02:00,82.0,65.0,30.20,ENE,74,1.0,10.0,57,0.00,,,0.01,weatherlink.com 1.10,2013-01-10 19:02:00,
2013-01-10 14:17:00,80.5,65.0,30.20,NE,55,3.0,7.0,60,0.00,,,0.01,weatherlink.com 1.10,2013-01-10 19:17:00,
2013-01-10 14:32:00,79.6,65.0,30.20,NE,40,2.0,5.0,62,0.00,,,0.01,weatherlink.com 1.10,2013-01-10 19:32:00,
2013-01-10 14:47:00,81.2,65.0,30.20,NE,39,3.0,6.0,59,0.00,,,0.01,weatherlink.com 1.10,2013-01-10 19:47:00,
2013-01-10 15:17:00,81.9,67.0,30.20,East,79,3.0,13.0,60,0.00,,,0.01,weatherlink.com 1.10,2013-01-10 20:17:00,
2013-01-10 15:32:00,80.3,66.0,30.20,ENE,64,3.0,13.0,61,0.00,,,0.01,weatherlink.com 1.10,2013-01-10 20:32:00,
2013-01-10 15:47:00,80.0,66.0,30.21,NE,56,2.0,8.0,63,0.00,,,0.01,weatherlink.com 1.10,2013-01-10 20:47:00,
2013-01-10 16:02:00,80.1,66.0,30.22,ENE,71,3.0,6.0,63,0.00,,,0.01,weatherlink.com 1.10,2013-01-10 21:02:00,
2013-01-10 16:17:00,78.8,66.0,30.22,ENE,57,3.0,8.0,66,0.00,,,0.01,weatherlink.com 1.10,2013-01-10 21:17:00,
2013-01-10 16:32:00,78.5,67.0,30.22,NE,46,1.0,10.0,67,0.00,,,0.01,weatherlink.com 1.10,2013-01-10 21:32:00,
2013-01-10 16:47:00,77.8,66.0,30.23,NE,46,0.0,7.0,68,0.00,,,0.01,weatherlink.com 1.10,2013-01-10 21:47:00,
2013-01-10 17:02:00,77.4,66.0,30.23,NE,46,1.0,3.0,68,0.00,,,0.01,weatherlink.com 1.10,2013-01-10 22:02:00,
2013-01-10 17:17:00,76.8,67.0,30.23,ENE,63,3.0,9.0,71,0.00,,,0.01,weatherlink.com 1.10,2013-01-10 22:17:00,
2013-01-10 17:32:00,76.5,66.0,30.23,NE,55,2.0,5.0,71,0.00,,,0.01,weatherlink.com 1.10,2013-01-10 22:32:00,
2013-01-10 17:47:00,75.8,67.0,30.23,NNE,24,0.0,5.0,73,0.00,,,0.01,weatherlink.com 1.10,2013-01-10 22:47:00,
2013-01-10 18:02:00,74.9,67.0,30.23,NNE,31,1.0,8.0,75,0.00,,,0.01,weatherlink.com 1.10,2013-01-10 23:02:00,
2013-01-10 18:17:00,74.1,66.0,30.23,ENE,57,2.0,7.0,76,0.00,,,0.01,weatherlink.com 1.10,2013-01-10 23:17:00,
2013-01-10 18:32:00,73.3,66.0,30.23,ENE,59,2.0,5.0,78,0.00,,,0.01,weatherlink.com 1.10,2013-01-10 23:32:00,
2013-01-10 18:47:00,72.6,65.0,30.24,NE,48,3.0,7.0,78,0.00,,,0.01,weatherlink.com 1.10,2013-01-10 23:47:00,
2013-01-10 19:02:00,72.2,65.0,30.24,NE,55,1.0,5.0,78,0.00,,,0.01,weatherlink.com 1.10,2013-01-11 00:02:00,
2013-01-10 19:17:00,71.9,65.0,30.24,ENE,65,2.0,8.0,78,0.00,,,0.01,weatherlink.com 1.10,2013-01-11 00:17:00,
2013-01-10 19:32:00,71.6,65.0,30.25,NE,53,2.0,9.0,79,0.00,,,0.01,weatherlink.com 1.10,2013-01-11 00:32:00,
2013-01-10 19:47:00,71.2,65.0,30.24,NE,51,4.0,6.0,80,0.00,,,0.01,weatherlink.com 1.10,2013-01-11 00:47:00,
2013-01-10 20:02:00,70.7,64.0,30.24,NE,46,0.0,4.0,80,0.00,,,0.01,weatherlink.com 1.10,2013-01-11 01:02:00,
2013-01-10 20:17:00,70.4,64.0,30.25,NE,43,2.0,3.0,81,0.00,,,0.01,weatherlink.com 1.10,2013-01-11 01:17:00,
2013-01-10 20:32:00,70.1,64.0,30.25,ENE,70,0.0,4.0,82,0.00,,,0.01,weatherlink.com 1.10,2013-01-11 01:32:00,
2013-01-10 20:47:00,69.7,64.0,30.25,NE,37,1.0,4.0,83,0.00,,,0.01,weatherlink.com 1.10,2013-01-11 01:47:00,
2013-01-10 21:02:00,69.3,64.0,30.26,NE,37,0.0,1.0,84,0.00,,,0.01,weatherlink.com 1.10,2013-01-11 02:02:00,
2013-01-10 21:17:00,68.8,64.0,30.27,NE,37,0.0,1.0,85,0.00,,,0.01,weatherlink.com 1.10,2013-01-11 02:17:00,
2013-01-10 21:32:00,68.2,64.0,30.27,NE,37,0.0,1.0,86,0.00,,,0.01,weatherlink.com 1.10,2013-01-11 02:32:00,
2013-01-10 21:47:00,67.8,64.0,30.27,NE,37,0.0,1.0,87,0.00,,,0.01,weatherlink.com 1.10,2013-01-11 02:47:00,
2013-01-10 22:02:00,67.3,64.0,30.26,NE,37,0.0,1.0,88,0.00,,,0.01,weatherlink.com 1.10,2013-01-11 03:02:00,
2013-01-10 22:17:00,66.9,63.0,30.26,NE,37,0.0,1.0,88,0.00,,,0.01,weatherlink.com 1.10,2013-01-11 03:17:00,
2013-01-10 22:32:00,66.5,63.0,30.26,NE,37,0.0,0.0,88,0.00,,,0.01,weatherlink.com 1.10,2013-01-11 03:32:00,
2013-01-10 22:47:00,66.1,63.0,30.26,NE,37,0.0,1.0,90,0.00,,,0.01,weatherlink.com 1.10,2013-01-11 03:47:00,
2013-01-10 23:02:00,65.8,63.0,30.26,NE,37,0.0,0.0,90,0.00,,,0.01,weatherlink.com 1.10,2013-01-11 04:02:00,
2013-01-10 23:17:00,65.7,63.0,30.26,NE,37,0.0,1.0,92,0.00,,,0.01,weatherlink.com 1.10,2013-01-11 04:17:00,
2013-01-10 23:32:00,65.7,63.0,30.27,NE,37,0.0,0.0,92,0.00,,,0.01,weatherlink.com 1.10,2013-01-11 04:32:00,
2013-01-10 23:47:00,65.4,63.0,30.27,NE,37,0.0,0.0,92,0.00,,,0.01,weatherlink.com 1.10,2013-01-11 04:47:00,